TimeMDT,TemperatureF,Dew PointF,Humidity,Sea Level PressureIn,VisibilityMPH,Wind Direction,Wind SpeedMPH,Gust SpeedMPH,PrecipitationIn,Events,Conditions,WindDirDegrees,DateUTC
12:53 AM,42.1,12.0,29,29.77,10.0,SW,4.6,-,N/A,,Clear,220,2013-04-02 06:53:00
1:53 AM,42.1,12.9,31,29.76,10.0,Calm,Calm,-,N/A,,Clear,0,2013-04-02 07:53:00
2:53 AM,37.0,12.9,37,29.79,10.0,Calm,Calm,-,N/A,,Clear,0,2013-04-02 08:53:00
3:53 AM,30.0,10.0,43,29.83,10.0,South,4.6,-,N/A,,Clear,180,2013-04-02 09:53:00
4:53 AM,28.9,10.9,47,29.84,10.0,ENE,3.5,-,N/A,,Clear,60,2013-04-02 10:53:00
5:53 AM,23.0,9.0,55,29.90,10.0,Calm,Calm,-,N/A,,Clear,0,2013-04-02 11:53:00
6:53 AM,25.0,10.0,53,29.93,10.0,NE,5.8,-,N/A,,Clear,50,2013-04-02 12:53:00
7:53 AM,30.9,12.9,47,29.92,10.0,NE,3.5,-,N/A,,Clear,40,2013-04-02 13:53:00
8:53 AM,39.9,16.0,38,29.86,10.0,WNW,3.5,-,N/A,,Clear,290,2013-04-02 14:53:00
9:53 AM,46.9,18.0,32,29.81,10.0,Variable,3.5,-,N/A,,Clear,0,2013-04-02 15:53:00
10:53 AM,52.0,21.0,30,29.79,10.0,West,12.7,17.3,N/A,,Clear,280,2013-04-02 16:53:00
11:53 AM,54.0,19.9,26,29.79,10.0,SW,8.1,-,N/A,,Mostly Cloudy,220,2013-04-02 17:53:00
12:53 PM,55.9,19.0,24,29.79,10.0,WNW,12.7,20.7,N/A,,Mostly Cloudy,300,2013-04-02 18:53:00
1:23 PM,51.8,19.4,28,30.00,10.0,West,32.2,40.3,N/A,,Overcast,270,2013-04-02 19:23:00
1:53 PM,50.0,19.9,31,29.82,10.0,ENE,3.5,-,0.00,,Scattered Clouds,60,2013-04-02 19:53:00
2:44 PM,48.2,26.6,43,29.98,10.0,NNE,13.8,-,0.00,Rain,Light Rain,20,2013-04-02 20:44:00
2:53 PM,50.0,25.0,38,29.85,10.0,North,13.8,-,0.00,,Mostly Cloudy,10,2013-04-02 20:53:00
3:53 PM,53.1,23.0,31,29.86,10.0,NW,6.9,20.7,0.00,,Mostly Cloudy,320,2013-04-02 21:53:00
4:53 PM,52.0,21.9,31,29.88,10.0,WNW,17.3,28.8,N/A,,Overcast,290,2013-04-02 22:53:00
5:53 PM,52.0,23.0,32,29.92,10.0,WNW,8.1,-,N/A,,Mostly Cloudy,290,2013-04-02 23:53:00
6:53 PM,50.0,24.1,36,29.94,10.0,NW,12.7,-,0.00,,Overcast,320,2013-04-03 00:53:00
7:53 PM,46.9,28.0,48,29.95,10.0,North,11.5,20.7,0.00,,Overcast,360,2013-04-03 01:53:00
8:53 PM,44.1,26.1,49,29.93,10.0,North,3.5,-,N/A,,Partly Cloudy,350,2013-04-03 02:53:00
9:53 PM,37.0,24.1,59,29.94,10.0,Calm,Calm,-,N/A,,Partly Cloudy,0,2013-04-03 03:53:00
10:53 PM,32.0,23.0,69,29.96,10.0,Calm,Calm,-,N/A,,Clear,0,2013-04-03 04:53:00
11:53 PM,30.0,21.9,72,29.97,10.0,Calm,Calm,-,N/A,,Clear,0,2013-04-03 05:53:00